TimeCDT,TemperatureF,Dew PointF,Humidity,Sea Level PressureIn,VisibilityMPH,Wind Direction,Wind SpeedMPH,Gust SpeedMPH,PrecipitationIn,Events,Conditions,WindDirDegrees,DateUTC
12:51 AM,79.0,60.1,52,29.88,10.0,South,4.6,-,N/A,,Clear,180,2013-08-31 05:51:00
1:51 AM,78.1,60.1,54,29.88,10.0,WSW,3.5,-,N/A,,Clear,240,2013-08-31 06:51:00
2:51 AM,75.0,60.1,60,29.88,10.0,SSW,3.5,-,N/A,,Clear,210,2013-08-31 07:51:00
3:51 AM,73.9,59.0,59,29.88,10.0,WSW,3.5,-,N/A,,Clear,240,2013-08-31 08:51:00
4:51 AM,72.0,59.0,64,29.88,10.0,SW,4.6,-,N/A,,Clear,220,2013-08-31 09:51:00
5:51 AM,73.9,60.1,62,29.89,10.0,WSW,3.5,-,N/A,,Clear,240,2013-08-31 10:51:00
6:51 AM,71.1,60.1,68,29.90,10.0,SSW,3.5,-,N/A,,Clear,200,2013-08-31 11:51:00
7:51 AM,71.1,61.0,70,29.91,10.0,SSW,3.5,-,N/A,,Clear,210,2013-08-31 12:51:00
8:51 AM,77.0,62.1,60,29.93,10.0,SSW,3.5,-,N/A,,Clear,200,2013-08-31 13:51:00
9:51 AM,84.9,61.0,44,29.92,10.0,WSW,5.8,-,N/A,,Clear,240,2013-08-31 14:51:00
10:51 AM,91.0,59.0,34,29.91,10.0,WSW,8.1,-,N/A,,Clear,240,2013-08-31 15:51:00
11:51 AM,93.9,59.0,31,29.90,10.0,SW,10.4,-,N/A,,Clear,220,2013-08-31 16:51:00
12:51 PM,95.0,57.0,28,29.89,10.0,SSW,10.4,16.1,N/A,,Clear,210,2013-08-31 17:51:00
1:51 PM,97.0,55.9,25,29.86,10.0,Variable,6.9,-,N/A,,Clear,0,2013-08-31 18:51:00
2:51 PM,99.0,55.0,23,29.84,10.0,WSW,10.4,-,N/A,,Clear,250,2013-08-31 19:51:00
3:51 PM,99.0,55.0,23,29.81,10.0,SSW,10.4,17.3,N/A,,Clear,210,2013-08-31 20:51:00
4:51 PM,99.0,54.0,22,29.80,10.0,Variable,6.9,-,N/A,,Clear,0,2013-08-31 21:51:00
5:51 PM,99.0,54.0,22,29.78,10.0,SW,9.2,-,N/A,,Clear,230,2013-08-31 22:51:00
6:51 PM,98.1,55.0,24,29.78,10.0,South,6.9,-,N/A,,Clear,180,2013-08-31 23:51:00
7:51 PM,97.0,55.9,25,29.78,10.0,Variable,3.5,-,N/A,,Mostly Cloudy,0,2013-09-01 00:51:00
8:51 PM,91.0,57.0,32,29.80,10.0,East,6.9,-,N/A,,Partly Cloudy,100,2013-09-01 01:51:00
9:51 PM,87.1,57.9,37,29.82,10.0,SE,6.9,-,N/A,,Clear,130,2013-09-01 02:51:00
10:51 PM,84.9,57.9,40,29.81,10.0,SE,5.8,-,N/A,,Clear,140,2013-09-01 03:51:00
11:51 PM,82.9,57.9,42,29.82,10.0,SSE,6.9,-,N/A,,Clear,160,2013-09-01 04:51:00